Globalstar M060

operational
NORAD ID: 26083 Int'l Des: 2000-008 Owner: GLOBT Country: US Constellation: globalstar
LEOCIRCULAR

About Globalstar M060

Description loading...

Live Position

Loading 3D Globe...

Upcoming Passes

Altitude History

Altitude vs Time

uPlot chart will show altitude changes over time

Two-Line Element Set

1 26083U 00008C 26062.13107538 -.00000104 00000-0 -12821-3 0 9995
2 26083 52.0033 50.9375 0003031 292.2495 146.5209 12.17676056183913
Epoch: Mar 3, 2026 • Age: 10 hours

Current Status

Altitude 1609.4 km
Velocity 7.07 km/s
Sub-Earth Point -29.57°S, 66.95°E
Launch Date Feb 8, 2000
Age 26 years
Type communications

Technical Details

Classification Payload
Mass 450.00 kg
Dry Mass 380.00 kg
Total Mass 450.00 kg
Length 1.50 m
Diameter 0.60 m
Span 12.00 m
Shape Box + 2 Pan
Manufacturer LOR
Bus Type LS-400
Phase Status In Orbit
Owner/State GLOBT/US

Large Constellations

Loading constellations...